Regional Weather Roundup
Issued by NWS

Home | Current Version | Previous Version | Text Only | Print | Product List | Glossary On
Versions: 1 2 3 4 5 6 7 8 9 10 11 12 13 14 15 16 17 18 19 20 21 22 23 24 25 26 27
000
ASUS42 KTBW 180216
RWRFL
FLORIDA REGIONAL WEATHER ROUNDUP
NATIONAL WEATHER SERVICE TAMPA BAY RUSKIN FL
1000 PM EDT TUE OCT 17 2017

NOTE: "FAIR" INDICATES FEW OR NO CLOUDS BELOW 12,000 FEET WITH NO
SIGNIFICANT WEATHER AND/OR OBSTRUCTIONS TO VISIBILITY.

FLZ001>010-012>015-112-114-115-180300-
PANHANDLE FLORIDA

CITY           SKY/WX    TMP DP  RH WIND       PRES   REMARKS
PENSACOLA      CLEAR     68  52  56 NE7       30.18R
PENSACOLA NAS  CLEAR     66  53  63 N7        30.17R
MILTON NAS     CLEAR     60  51  72 N5        30.19
CRESTVIEW      CLEAR     55  51  86 CALM      30.21R
DUKE FIELD     CLEAR     59  48  67 NE5       30.19R
VALPARAISO     CLEAR     65  47  51 NE8       30.18R
MARY ESTHER    CLEAR     65  49  56 NE12      30.16
PANAMA CITY    FAIR      62  48  60 N7        30.18R
TYNDALL AFB    CLEAR     67  49  54 NE8       30.18R
APALACHICOLA   CLEAR     66  58  75 NE9       30.17R

STATION/POSITION SKY/WX   TEMP    WIND        PRES    WAVE   SWELL
                          AIR SEA DIR/SP/G            HT/PER HT/PER
                          (F)     (DEG/KT/KT) (MB)    (FT/S) (FT/S)
30.1N   87.6W              74 79   60/ 16/ 21 1020.8R   3/ 6
29.2N   88.2W              76 82   60/ 17/ 21 1020.5R   5/ 7   2/ 9
28.8N   86.0W              76 82   60/ 19/ 23 1019.4R   6/ 7
PANAMA CITY BEAC           69 79   40/  8/ 12 1022.4R
TOWER C                    72      50/ 23/ 26 1021.3R
28.5N   84.5W              75 81   60/ 21/ 25 1018.8R   6/ 6

$$
FLZ011-016>038-118-127-128-134-139-239-180300-
NORTH FLORIDA

CITY           SKY/WX    TMP DP  RH WIND       PRES   REMARKS
MARIANNA       CLEAR     60  44  55 E5        30.20R
TALLAHASSEE    CLEAR     66  46  48 NE7       30.20R
LIVE OAK       PTCLDY    61  55  82 NE8G14    30.21S
CROSS CITY     CLEAR     64  58  81 NE12      30.21S
LAKE CITY      FAIR      59  55  88 NE8       30.19S
GAINESVILLE    CLEAR     62  57  83 N10       30.19R
WILLISTON      CLEAR     66  61  82 N10       30.16R
PALATKA        CLOUDY    66  66 100 N6        30.15S
MAYPORT NAS    MOCLDY    72  64  76 NE22G28   30.17R
JACKSONVILLE   PTCLDY    63  58  83 N7        30.18S
JAX NAS        MOCLDY    67  60  78 N15       30.18R
JAX CECIL      CLOUDY    63  57  82 N9        30.18R
ST AUGUSTINE   CLOUDY    73  66  78 N21G26    30.15R
PALM COAST     CLOUDY    73  66  77 NE17G24   30.12R

STATION/POSITION SKY/WX   TEMP    WIND        PRES    WAVE   SWELL
                          AIR SEA DIR/SP/G            HT/PER HT/PER
                          (F)     (DEG/KT/KT) (MB)    (FT/S) (FT/S)
SHELL POINT      NOT AVBL
KEATON BEACH               62      30/  7/ 10 1021.3R
CEDAR KEY                  67      50/ 16/ 18 1021.1R
FERNANDINA                 70 78   20/ 10/ 22 1022.7R
30.7N   81.3W                 79                N/A     8/11   3/11
MAYPORT                    72 79   30/ 21/ 24 1021.9R
31.4N   80.9W              70 78   60/ 21/ 25 1022.1R   7/ 7   3/10
ST AUGUSTINE               74 79   20/ 25/ 29 1020.6R

$$
FLZ040-043>046-052-053-057-058-063-144-180300-
INTERIOR CENTRAL FLORIDA

CITY           SKY/WX    TMP DP  RH WIND       PRES   REMARKS
OCALA          PTCLDY    66  61  84 N9        30.15R
THE VILLAGES     N/A     70  66  88 NE8G15    30.02S
LEESBURG       CLOUDY    72  67  84 N14G22    30.12R
SANFORD        CLOUDY    74  68  81 N13       30.09R
ORLANDO EXEC   CLOUDY    75  70  83 NE14G24   30.08
ORLANDO INTL   CLOUDY    73  71  93 N13       30.08R
KISSIMMEE      CLOUDY    75  69  81 NE12      30.09R
WINTER HAVEN   CLOUDY    73  67  81 NE10      30.10R
LAKELAND       MOCLDY    73  68  83 NE12      30.09R
BARTOW         CLOUDY    73  68  83 NE13      30.09R
SEBRING        FAIR      75  70  85 N10       30.06S
OKEECHOBEE     MOCLDY    73  70  88 N7        30.04S

$$
FLZ041-047-054-059-064-141-147-180300-
EAST CENTRAL FLORIDA

CITY           SKY/WX    TMP DP  RH WIND       PRES   REMARKS
DAYTONA BEACH  CLOUDY    75  72  90 N20G30    30.10R
DELAND         CLOUDY    73  68  83 N12       30.10R
NEW SMYRNA BEA RAIN      75  68  78 N20G25    30.10R VSB 1
JFK SPACE CTR  MOCLDY    75  74  97 NE9       30.06R
CAPE CANAVERAL MOCLDY    75  72  88 NE10      30.05R
PATRICK AFB    DRIZZLE   77  73  88 N17G26    30.04R
MELBOURNE      LGT RAIN  78  73  84 NE15G21   30.04R
VERO BEACH     CLOUDY    78  72  81 NE12      30.04R
FT PIERCE      MOCLDY    78  73  84 NE7       30.04R

STATION/POSITION SKY/WX   TEMP    WIND        PRES    WAVE   SWELL
                          AIR SEA DIR/SP/G            HT/PER HT/PER
                          (F)     (DEG/KT/KT) (MB)    (FT/S) (FT/S)
28.5N   80.2W              80 84   60/ 16/ 21 1017.2R   8/11   7/11
TRIDENT PIER               74 82   20/ 11/ 15 1019.3R
28.4N   80.5W                 82                N/A     5/11   3/11
27.5N   80.2W                 81                N/A     4/11   2/11

$$
FLZ050-056-061-142-242-148-248-149-249-151-251-155-255-
160-260-180300-
WEST CENTRAL FLORIDA

CITY           SKY/WX    TMP DP  RH WIND       PRES   REMARKS
CRYSTAL RIVER  CLOUDY    68  61  77 NE9       30.13R
INVERNESS      CLOUDY    70  64  83 N13G20    30.13S
BROOKSVILLE    CLOUDY    72  65  78 NE15      30.11R
CLEARWATER AIR CLOUDY    72  66  83 NE8       30.09R
ST PETE CLEARW CLOUDY    76  69  79 NE10G20   30.08R
TAMPA INTL     CLOUDY    75  67  76 NE12G20   30.10R
TAMPA EXEC     CLOUDY    72  70  94 N3        30.10R
PLANT CITY     CLOUDY    73  68  83 N8        30.11R
PETER O KNIGHT CLOUDY    72  68  88 NE13      30.09R
ST PETERSBURG  CLOUDY    74  70  87 E22G29    30.06S
SARASOTA       MOCLDY    75  70  84 NE9G18    30.05R
VENICE         FAIR      77  72  83 NE13G18   30.05S

STATION/POSITION SKY/WX   TEMP    WIND        PRES    WAVE   SWELL
                          AIR SEA DIR/SP/G            HT/PER HT/PER
                          (F)     (DEG/KT/KT) (MB)    (FT/S) (FT/S)
CLEARWATER BEACH           74 81   40/  8/ 15 1019.3R
MIDDLE TAMPA BAY           76      70/ 21/ 26 1018.8R
VENICE                     76 82   30/  9/ 12 1017.8R

$$
FLZ066-069-070-075>078-162-262-165-265-180300-
SOUTHWEST FLORIDA AND KEYS

CITY           SKY/WX    TMP DP  RH WIND       PRES   REMARKS
PUNTA GORDA    CLOUDY    75  71  87 NE12      30.05R
FT MYERS       MOCLDY    75  71  87 NE10      30.03R
SOUTHWEST INTL MOCLDY    76  73  91 NE10      30.03R
NAPLES         PTCLDY    77  71  82 NE13      30.02R
MARCO ISLAND     N/A     79  72  78 NE10      30.03R
IMMOKALEE      FAIR      75  72  88 NE6       30.04R
MARATHON       CLOUDY    83  72  69 E7        30.00R
KEY WEST NAS   MOCLDY    82  78  88 E12       30.00R
KEY WEST INTL  CLOUDY    83  75  77 E8        30.01R

STATION/POSITION SKY/WX   TEMP    WIND        PRES    WAVE   SWELL
                          AIR SEA DIR/SP/G            HT/PER HT/PER
                          (F)     (DEG/KT/KT) (MB)    (FT/S) (FT/S)
NAPLES                        84   60/  8/ 11 1016.5R
DRY TORTUGAS               78     130/  2/  3 1016.2R
SAND KEY                   82                 1016.4R
MOLASSES REEF              82 84   50/ 10/ 11 1016.4R

$$
FLZ067-068-071>074-168-172>174-180300-
SOUTHEAST FLORIDA

CITY           SKY/WX    TMP DP  RH WIND       PRES   REMARKS
W PALM BEACH   CLOUDY    81  73  76 NE8       30.03R
BOCA RATON     PTCLDY    81  72  74 NE10      30.02R
FT LAUDER-EXEC CLOUDY    81  73  76 NE6       30.01R
FT LAUDERDALE  CLOUDY    81  74  79 NE8       30.01R
POMPANO BEACH  CLOUDY    82  72  71 NE8       30.01R
PEMBROKE PINES CLOUDY    82  73  74 NE7       30.02R
OPA LOCKA      CLOUDY    80  74  81 NE6       30.02R
MIAMI          CLOUDY    83  74  74 NE5       30.01R
WEST KENDALL   CLOUDY    76  72  87 W3        30.02R
HOMESTEAD      DRIZZLE   81  77  89 NE5       30.01R

STATION/POSITION SKY/WX   TEMP    WIND        PRES    WAVE   SWELL
                          AIR SEA DIR/SP/G            HT/PER HT/PER
                          (F)     (DEG/KT/KT) (MB)    (FT/S) (FT/S)
PORT EVERGLADES            82      50/  9/ 12 1016.1R
VIRGINIA KEY               82 85   40/  7/ 10 1016.0R
LAKE WORTH                 81 84   30/ 11/ 12 1017.5R
FOWEY ROCKS                82 83   60/ 10/ 11 1017.1R
SETTLEMENT POINT           81      40/  8/  9 1016.6R

$$





USA.gov is the U.S. government's official web portal to all federal, state and local government web resources and services.